Year,Month,Day,Hour,Minute,Value (Times are PST for temperature in C)
2011,02,16,08,28,0.60
2011,02,16,08,29,0.60
2011,02,16,08,30,0.60
2011,02,16,08,31,0.70
2011,02,16,08,32,0.70
2011,02,16,08,33,0.70
2011,02,16,08,34,0.70
2011,02,16,08,35,0.70
2011,02,16,08,36,0.70
2011,02,16,08,37,0.70
2011,02,16,08,38,0.70
2011,02,16,08,39,0.70
2011,02,16,08,40,0.70
2011,02,16,08,41,0.80
2011,02,16,08,42,0.80
2011,02,16,08,43,0.80
2011,02,16,08,44,0.80
2011,02,16,08,45,0.80
2011,02,16,08,46,0.80
2011,02,16,08,47,0.80
2011,02,16,08,48,0.80
2011,02,16,08,49,0.80
2011,02,16,08,50,0.80
2011,02,16,08,51,0.80
2011,02,16,08,52,0.80
2011,02,16,08,53,0.80
2011,02,16,08,54,0.80
2011,02,16,08,55,0.80
2011,02,16,08,56,0.80
2011,02,16,08,57,0.80
2011,02,16,08,58,0.80
2011,02,16,08,59,0.80
2011,02,16,09,00,0.80
2011,02,16,09,01,0.80
2011,02,16,09,02,0.80
2011,02,16,09,03,0.80
2011,02,16,09,04,0.80
2011,02,16,09,05,0.80
2011,02,16,09,06,0.80
2011,02,16,09,07,0.80
2011,02,16,09,08,0.90
2011,02,16,09,09,0.90
2011,02,16,09,10,0.90
2011,02,16,09,11,0.90
2011,02,16,09,12,0.90
2011,02,16,09,13,0.90
2011,02,16,09,14,0.90
2011,02,16,09,15,0.90
2011,02,16,09,16,1.00
2011,02,16,09,17,0.90
2011,02,16,09,18,1.00
2011,02,16,09,19,0.90
2011,02,16,09,20,0.90
2011,02,16,09,21,0.90
2011,02,16,09,22,0.90
2011,02,16,09,23,0.90
2011,02,16,09,24,0.90
2011,02,16,09,25,1.00
2011,02,16,09,26,1.00
2011,02,16,09,27,1.00
2011,02,16,09,28,1.00
2011,02,16,09,29,1.00
2011,02,16,09,30,1.00
2011,02,16,09,31,1.10
2011,02,16,09,32,1.10
2011,02,16,09,33,1.10
2011,02,16,09,34,1.10
2011,02,16,09,35,1.10
2011,02,16,09,36,1.10
2011,02,16,09,37,1.10
2011,02,16,09,38,1.20
2011,02,16,09,39,1.20
2011,02,16,09,40,1.20
2011,02,16,09,41,1.20
2011,02,16,09,42,1.20
2011,02,16,09,43,1.20
2011,02,16,09,44,1.30
2011,02,16,09,45,1.30
2011,02,16,09,46,1.30
2011,02,16,09,47,1.30
2011,02,16,09,48,1.30
2011,02,16,09,49,1.30
2011,02,16,09,50,1.30
2011,02,16,09,51,1.30
2011,02,16,09,52,1.30
2011,02,16,09,53,1.30
2011,02,16,09,54,1.30
2011,02,16,09,55,1.30
2011,02,16,09,56,1.30
2011,02,16,09,57,1.30
2011,02,16,09,58,1.30
2011,02,16,09,59,1.30
2011,02,16,10,00,1.30
2011,02,16,10,01,1.30
2011,02,16,10,02,1.30
2011,02,16,10,03,1.30
2011,02,16,10,04,1.30
2011,02,16,10,05,1.30
2011,02,16,10,06,1.30
2011,02,16,10,07,1.30
2011,02,16,10,08,1.30
2011,02,16,10,09,1.30
2011,02,16,10,10,1.30
2011,02,16,10,11,1.30
2011,02,16,10,12,1.40
2011,02,16,10,13,1.40
2011,02,16,10,14,1.50
2011,02,16,10,15,1.50
2011,02,16,10,16,1.60
2011,02,16,10,17,1.60
2011,02,16,10,18,1.60
2011,02,16,10,19,1.60
2011,02,16,10,20,1.70
2011,02,16,10,21,1.70
2011,02,16,10,22,1.70
2011,02,16,10,23,1.80
2011,02,16,10,24,1.80
2011,02,16,10,25,1.80
2011,02,16,10,26,1.90
2011,02,16,10,27,1.90
2011,02,16,10,28,1.90
2011,02,16,10,29,2.00
2011,02,16,10,30,2.00
2011,02,16,10,31,2.10
2011,02,16,10,32,2.20
2011,02,16,10,33,2.20
2011,02,16,10,34,2.30
2011,02,16,10,35,2.40
2011,02,16,10,36,2.40
2011,02,16,10,37,2.40
2011,02,16,10,38,2.50
2011,02,16,10,39,2.50
2011,02,16,10,40,2.60
2011,02,16,10,41,2.60
2011,02,16,10,42,2.70
2011,02,16,10,43,2.70
2011,02,16,10,44,2.70
2011,02,16,10,45,2.70
2011,02,16,10,46,2.80
2011,02,16,10,47,2.80
2011,02,16,10,48,2.80
2011,02,16,10,49,2.80
2011,02,16,10,50,2.90
2011,02,16,10,51,2.90
2011,02,16,10,52,2.90
2011,02,16,10,53,3.00
2011,02,16,10,54,3.00
2011,02,16,10,55,3.00
2011,02,16,10,56,3.10
2011,02,16,10,57,3.10
2011,02,16,10,58,3.10
2011,02,16,10,59,3.10
2011,02,16,11,00,3.10
2011,02,16,11,01,3.10
2011,02,16,11,02,3.10
2011,02,16,11,03,3.20
2011,02,16,11,04,3.20
2011,02,16,11,05,3.20
2011,02,16,11,06,3.20
2011,02,16,11,07,3.20
2011,02,16,11,08,3.20
2011,02,16,11,09,3.30
2011,02,16,11,10,3.30
2011,02,16,11,11,3.20
2011,02,16,11,12,3.20
2011,02,16,11,13,3.20
2011,02,16,11,14,3.20
2011,02,16,11,15,3.20
2011,02,16,11,16,3.20
2011,02,16,11,17,3.20
2011,02,16,11,18,3.10
2011,02,16,11,19,3.10
2011,02,16,11,20,3.10
2011,02,16,11,21,3.10
2011,02,16,11,22,3.00
2011,02,16,11,23,3.00
2011,02,16,11,24,3.00
2011,02,16,11,25,3.00
2011,02,16,11,26,3.00
2011,02,16,11,27,3.00
2011,02,16,11,28,3.00
2011,02,16,11,29,3.10
2011,02,16,11,30,3.10
2011,02,16,11,31,3.10
2011,02,16,11,32,3.10
2011,02,16,11,33,3.10
2011,02,16,11,34,3.20
2011,02,16,11,35,3.20
2011,02,16,11,36,3.20
2011,02,16,11,37,3.30
2011,02,16,11,38,3.30
2011,02,16,11,39,3.40
2011,02,16,11,40,3.40
2011,02,16,11,41,3.40
2011,02,16,11,42,3.50
2011,02,16,11,43,3.50
2011,02,16,11,44,3.60
2011,02,16,11,45,3.70
2011,02,16,11,46,3.70
2011,02,16,11,47,3.70
2011,02,16,11,48,3.70
2011,02,16,11,49,3.70
2011,02,16,11,50,3.70
2011,02,16,11,51,3.70
2011,02,16,11,52,3.70
2011,02,16,11,53,3.70
2011,02,16,11,54,3.70
2011,02,16,11,55,3.70
2011,02,16,11,56,3.70
2011,02,16,11,57,3.70
2011,02,16,11,58,3.70
2011,02,16,11,59,3.70
2011,02,16,12,00,3.70
2011,02,16,12,01,3.70
2011,02,16,12,02,3.70
2011,02,16,12,03,3.70
2011,02,16,12,04,3.70
2011,02,16,12,05,3.70
2011,02,16,12,06,3.70
2011,02,16,12,07,3.80
2011,02,16,12,08,3.80
2011,02,16,12,09,3.80
2011,02,16,12,10,3.90
2011,02,16,12,11,4.00
2011,02,16,12,12,4.00
2011,02,16,12,13,4.00
2011,02,16,12,14,4.00
2011,02,16,12,15,4.00
2011,02,16,12,16,4.00
2011,02,16,12,17,4.00
2011,02,16,12,18,4.00
2011,02,16,12,19,4.10
2011,02,16,12,20,4.10
2011,02,16,12,21,4.10
2011,02,16,12,22,4.10
2011,02,16,12,23,4.10
2011,02,16,12,24,4.10
2011,02,16,12,25,4.10
2011,02,16,12,26,4.10
2011,02,16,12,27,4.10
2011,02,16,12,28,4.10
2011,02,16,12,29,4.10
2011,02,16,12,30,4.10
2011,02,16,12,31,4.10
2011,02,16,12,32,4.10
2011,02,16,12,33,4.10
2011,02,16,12,34,4.10
2011,02,16,12,35,4.10
2011,02,16,12,36,4.10
2011,02,16,12,37,4.10
2011,02,16,12,38,4.20
2011,02,16,12,39,4.20
2011,02,16,12,40,4.20
2011,02,16,12,41,4.30
2011,02,16,12,42,4.30
2011,02,16,12,43,4.30
2011,02,16,12,44,4.30
2011,02,16,12,45,4.30
2011,02,16,12,46,4.30
2011,02,16,12,47,4.40
2011,02,16,12,48,4.30
2011,02,16,12,49,4.30
2011,02,16,12,50,4.30
2011,02,16,12,51,4.30
2011,02,16,12,52,4.30
2011,02,16,12,53,4.30
2011,02,16,12,54,4.30
2011,02,16,12,55,4.30
2011,02,16,12,56,4.20
2011,02,16,12,57,4.20
2011,02,16,12,58,4.20
2011,02,16,12,59,4.20
2011,02,16,13,00,4.10
2011,02,16,13,01,4.10
2011,02,16,13,02,4.10
2011,02,16,13,03,4.10
2011,02,16,13,04,4.10
2011,02,16,13,05,4.10
2011,02,16,13,06,4.10
2011,02,16,13,07,4.10
2011,02,16,13,08,4.10
2011,02,16,13,09,4.20
2011,02,16,13,10,4.20
2011,02,16,13,11,4.20
2011,02,16,13,12,4.30
2011,02,16,13,13,4.30
2011,02,16,13,14,4.30
2011,02,16,13,15,4.30
2011,02,16,13,16,4.20
2011,02,16,13,17,4.20
2011,02,16,13,18,4.20
2011,02,16,13,19,4.20
2011,02,16,13,20,4.20
2011,02,16,13,21,4.20
2011,02,16,13,22,4.20
2011,02,16,13,23,4.20
2011,02,16,13,24,4.20
2011,02,16,13,25,4.20
2011,02,16,13,26,4.20
2011,02,16,13,27,4.20
2011,02,16,13,28,4.10
2011,02,16,13,29,4.10
2011,02,16,13,30,4.10
2011,02,16,13,31,4.10
2011,02,16,13,32,4.10
2011,02,16,13,33,4.10
2011,02,16,13,34,4.10
2011,02,16,13,35,4.00
2011,02,16,13,36,4.00
2011,02,16,13,37,4.00
2011,02,16,13,38,4.00
2011,02,16,13,39,4.00
2011,02,16,13,40,4.00
2011,02,16,13,41,4.00
2011,02,16,13,42,4.00
2011,02,16,13,43,4.00
2011,02,16,13,44,4.00
2011,02,16,13,45,4.00
2011,02,16,13,46,4.00
2011,02,16,13,47,4.00
2011,02,16,13,48,4.00
2011,02,16,13,49,4.00
2011,02,16,13,50,3.90
2011,02,16,13,51,3.90
2011,02,16,13,52,3.90
2011,02,16,13,53,3.90
2011,02,16,13,54,3.90
2011,02,16,13,55,3.90
2011,02,16,13,56,3.90
2011,02,16,13,57,3.90
2011,02,16,13,58,3.90
2011,02,16,13,59,3.90
2011,02,16,14,00,4.00
2011,02,16,14,01,4.00
2011,02,16,14,02,4.10
2011,02,16,14,03,4.10
2011,02,16,14,04,4.10
2011,02,16,14,05,4.10
2011,02,16,14,06,4.10
2011,02,16,14,07,4.20
2011,02,16,14,08,4.20
2011,02,16,14,09,4.20
2011,02,16,14,10,4.20
2011,02,16,14,11,4.20
2011,02,16,14,12,4.20
2011,02,16,14,13,4.10
2011,02,16,14,14,4.10
2011,02,16,14,15,4.10
2011,02,16,14,16,4.10
2011,02,16,14,17,4.10
2011,02,16,14,18,4.10
2011,02,16,14,19,4.10
2011,02,16,14,20,4.10
2011,02,16,14,21,4.10
2011,02,16,14,22,4.20
2011,02,16,14,23,4.20
2011,02,16,14,24,4.20
2011,02,16,14,25,4.20
2011,02,16,14,26,4.20
2011,02,16,14,27,4.20
2011,02,16,14,28,4.20
2011,02,16,14,29,4.20
2011,02,16,14,30,4.20
2011,02,16,14,31,4.30
2011,02,16,14,32,4.30
2011,02,16,14,33,4.30
2011,02,16,14,34,4.30
2011,02,16,14,35,4.30
2011,02,16,14,36,4.30
2011,02,16,14,37,4.30
2011,02,16,14,38,4.30
2011,02,16,14,39,4.40
2011,02,16,14,40,4.40
2011,02,16,14,41,4.40
2011,02,16,14,42,4.40
2011,02,16,14,43,4.50
2011,02,16,14,44,4.50
2011,02,16,14,45,4.50
2011,02,16,14,46,4.50
2011,02,16,14,47,4.60
2011,02,16,14,48,4.60
2011,02,16,14,49,4.60
2011,02,16,14,50,4.70
2011,02,16,14,51,4.70
2011,02,16,14,52,4.70
2011,02,16,14,53,4.70
2011,02,16,14,54,4.70
2011,02,16,14,55,4.80
2011,02,16,14,56,4.80
2011,02,16,14,57,4.80
2011,02,16,14,58,4.80
2011,02,16,14,59,4.80
2011,02,16,15,00,4.90
2011,02,16,15,01,4.80
2011,02,16,15,02,4.80
2011,02,16,15,03,4.80
2011,02,16,15,04,4.80
2011,02,16,15,05,4.70
2011,02,16,15,06,4.70
2011,02,16,15,07,4.70
2011,02,16,15,08,4.70
2011,02,16,15,09,4.70
2011,02,16,15,10,4.60
2011,02,16,15,11,4.50
2011,02,16,15,12,4.50
2011,02,16,15,13,4.40
2011,02,16,15,14,4.40
2011,02,16,15,15,4.40
2011,02,16,15,16,4.30
2011,02,16,15,17,4.30
2011,02,16,15,18,4.30
2011,02,16,15,19,4.20
2011,02,16,15,20,4.20
2011,02,16,15,21,4.20
2011,02,16,15,22,4.20
2011,02,16,15,23,4.20
2011,02,16,15,24,4.20
2011,02,16,15,25,4.20
2011,02,16,15,26,4.20
2011,02,16,15,27,4.10
2011,02,16,15,28,4.10
2011,02,16,15,29,4.20
2011,02,16,15,30,4.10
2011,02,16,15,31,4.20
2011,02,16,15,32,4.20
2011,02,16,15,33,4.20
2011,02,16,15,34,4.20
2011,02,16,15,35,4.20
2011,02,16,15,36,4.20
2011,02,16,15,37,4.20
2011,02,16,15,38,4.20
2011,02,16,15,39,4.20
2011,02,16,15,40,4.20
2011,02,16,15,41,4.20
2011,02,16,15,42,4.20
2011,02,16,15,43,4.20
2011,02,16,15,44,4.20
2011,02,16,15,45,4.10
2011,02,16,15,46,4.10
2011,02,16,15,47,4.10
2011,02,16,15,48,4.10
2011,02,16,15,49,4.00
2011,02,16,15,50,4.00
2011,02,16,15,51,4.00
2011,02,16,15,52,3.90
2011,02,16,15,53,3.90
2011,02,16,15,54,3.90
2011,02,16,15,55,3.90
2011,02,16,15,56,3.90
2011,02,16,15,57,3.90
2011,02,16,15,58,3.80
2011,02,16,15,59,3.80
2011,02,16,16,00,3.80
2011,02,16,16,01,3.80
2011,02,16,16,02,3.80
2011,02,16,16,03,3.80
2011,02,16,16,04,3.80
2011,02,16,16,05,3.80
2011,02,16,16,06,3.80
2011,02,16,16,07,3.80
2011,02,16,16,08,3.80
2011,02,16,16,09,3.70
2011,02,16,16,10,3.70
2011,02,16,16,11,3.70
2011,02,16,16,12,3.70
2011,02,16,16,13,3.70
2011,02,16,16,14,3.70
2011,02,16,16,15,3.70
2011,02,16,16,16,3.70
2011,02,16,16,17,3.70
2011,02,16,16,18,3.70
2011,02,16,16,19,3.70
2011,02,16,16,20,3.70
2011,02,16,16,21,3.70
2011,02,16,16,22,3.70
2011,02,16,16,23,3.70
2011,02,16,16,24,3.70
2011,02,16,16,25,3.70
2011,02,16,16,26,3.70
2011,02,16,16,27,3.70
2011,02,16,16,28,3.70
2011,02,16,16,29,3.70
2011,02,16,16,30,3.70
2011,02,16,16,31,3.70
2011,02,16,16,32,3.60
2011,02,16,16,33,3.60
2011,02,16,16,34,3.50
2011,02,16,16,35,3.40
2011,02,16,16,36,3.40
2011,02,16,16,37,3.30
2011,02,16,16,38,3.30
2011,02,16,16,39,3.20
2011,02,16,16,40,3.20
2011,02,16,16,41,3.10
2011,02,16,16,42,3.10
2011,02,16,16,43,3.10
2011,02,16,16,44,3.00
2011,02,16,16,45,3.00
2011,02,16,16,46,2.90
2011,02,16,16,47,2.90
2011,02,16,16,48,2.90
2011,02,16,16,49,2.90
2011,02,16,16,50,2.90
2011,02,16,16,51,2.90
2011,02,16,16,52,2.80
2011,02,16,16,53,2.80
2011,02,16,16,54,2.80
2011,02,16,16,55,2.80
2011,02,16,16,56,2.80
2011,02,16,16,57,2.80
2011,02,16,16,58,2.80
2011,02,16,16,59,2.80
2011,02,16,17,00,2.80
2011,02,16,17,01,2.80
2011,02,16,17,02,2.80
2011,02,16,17,03,2.80
2011,02,16,17,04,2.80
2011,02,16,17,05,2.80
2011,02,16,17,06,2.80
2011,02,16,17,07,2.80
2011,02,16,17,08,2.80
2011,02,16,17,09,2.80
2011,02,16,17,10,2.80
2011,02,16,17,11,2.80
2011,02,16,17,12,2.80
2011,02,16,17,13,2.80
2011,02,16,17,14,2.80
2011,02,16,17,15,2.80
2011,02,16,17,16,2.80
2011,02,16,17,17,2.80
2011,02,16,17,18,2.80
2011,02,16,17,19,2.80
2011,02,16,17,20,2.80
2011,02,16,17,21,2.80
2011,02,16,17,22,2.80
2011,02,16,17,23,2.80
2011,02,16,17,24,2.80
2011,02,16,17,25,2.80
2011,02,16,17,26,2.70
2011,02,16,17,27,2.70
2011,02,16,17,28,2.70
2011,02,16,17,29,2.70
2011,02,16,17,30,2.70
2011,02,16,17,31,2.70
2011,02,16,17,32,2.70
2011,02,16,17,33,2.70
2011,02,16,17,34,2.80
2011,02,16,17,35,2.80
2011,02,16,17,36,2.80
2011,02,16,17,37,2.80
2011,02,16,17,38,2.80
2011,02,16,17,39,2.80
2011,02,16,17,40,2.80
2011,02,16,17,41,2.80
2011,02,16,17,42,2.80
2011,02,16,17,43,2.80
2011,02,16,17,44,2.80
2011,02,16,17,45,2.80
2011,02,16,17,46,2.80
2011,02,16,17,47,2.80
2011,02,16,17,48,2.80
2011,02,16,17,49,2.80
2011,02,16,17,50,2.70
2011,02,16,17,51,2.70
2011,02,16,17,52,2.70
2011,02,16,17,53,2.70
2011,02,16,17,54,2.70
2011,02,16,17,55,2.70
2011,02,16,17,56,2.70
2011,02,16,17,57,2.70
2011,02,16,17,58,2.70
2011,02,16,17,59,2.70
2011,02,16,18,00,2.70
2011,02,16,18,01,2.70
2011,02,16,18,02,2.70
2011,02,16,18,03,2.70
2011,02,16,18,04,2.70
2011,02,16,18,05,2.60
2011,02,16,18,06,2.60
2011,02,16,18,07,2.60
2011,02,16,18,08,2.60
2011,02,16,18,09,2.60
2011,02,16,18,10,2.60
2011,02,16,18,11,2.60
2011,02,16,18,12,2.60
2011,02,16,18,13,2.60
2011,02,16,18,14,2.60
2011,02,16,18,15,2.60
2011,02,16,18,16,2.50
2011,02,16,18,17,2.50
2011,02,16,18,18,2.50
2011,02,16,18,19,2.50
2011,02,16,18,20,2.50
2011,02,16,18,21,2.50
2011,02,16,18,22,2.50
2011,02,16,18,23,2.50
2011,02,16,18,24,2.50
2011,02,16,18,25,2.50
2011,02,16,18,26,2.40
2011,02,16,18,27,2.40
2011,02,16,18,28,2.40
2011,02,16,18,29,2.40
2011,02,16,18,30,2.40
2011,02,16,18,31,2.40
2011,02,16,18,32,2.40
2011,02,16,18,33,2.40
2011,02,16,18,34,2.40
2011,02,16,18,35,2.40
2011,02,16,18,36,2.30
2011,02,16,18,37,2.30
2011,02,16,18,38,2.30
2011,02,16,18,39,2.30
2011,02,16,18,40,2.30
2011,02,16,18,41,2.30
2011,02,16,18,42,2.30
2011,02,16,18,43,2.30
2011,02,16,18,44,2.30
2011,02,16,18,45,2.30
2011,02,16,18,46,2.30
2011,02,16,18,47,2.30
2011,02,16,18,48,2.30
2011,02,16,18,49,2.30
2011,02,16,18,50,2.40
2011,02,16,18,51,2.40
2011,02,16,18,52,2.40
2011,02,16,18,53,2.40
2011,02,16,18,54,2.40
2011,02,16,18,55,2.40
2011,02,16,18,56,2.40
2011,02,16,18,57,2.40
2011,02,16,18,58,2.40
2011,02,16,18,59,2.40
2011,02,16,19,00,2.40
2011,02,16,19,01,2.40
2011,02,16,19,02,2.40
2011,02,16,19,03,2.40
2011,02,16,19,04,2.40
2011,02,16,19,05,2.40
2011,02,16,19,06,2.40
2011,02,16,19,07,2.40
2011,02,16,19,08,2.40
2011,02,16,19,09,2.40
2011,02,16,19,10,2.40
2011,02,16,19,11,2.40
2011,02,16,19,12,2.40
2011,02,16,19,13,2.40
2011,02,16,19,14,2.40
2011,02,16,19,15,2.40
2011,02,16,19,16,2.50
2011,02,16,19,17,2.40
2011,02,16,19,18,2.50
2011,02,16,19,19,2.50
2011,02,16,19,20,2.50
2011,02,16,19,21,2.40
2011,02,16,19,22,2.40
2011,02,16,19,23,2.40
2011,02,16,19,24,2.40
2011,02,16,19,25,2.40
2011,02,16,19,26,2.40
2011,02,16,19,27,2.40
2011,02,16,19,28,2.40
2011,02,16,19,29,2.40
2011,02,16,19,30,2.40
2011,02,16,19,31,2.40
2011,02,16,19,32,2.40
2011,02,16,19,33,2.40
2011,02,16,19,34,2.40
2011,02,16,19,35,2.40
2011,02,16,19,36,2.40
2011,02,16,19,37,2.40
2011,02,16,19,38,2.40
2011,02,16,19,39,2.50
2011,02,16,19,40,2.50
2011,02,16,19,41,2.50
2011,02,16,19,42,2.50
2011,02,16,19,43,2.50
2011,02,16,19,44,2.50
2011,02,16,19,45,2.50
2011,02,16,19,46,2.60
2011,02,16,19,47,2.60
2011,02,16,19,48,2.60
2011,02,16,19,49,2.60
2011,02,16,19,50,2.60
2011,02,16,19,51,2.60
2011,02,16,19,52,2.60
2011,02,16,19,53,2.60
2011,02,16,19,54,2.60
2011,02,16,19,55,2.60
2011,02,16,19,56,2.60
2011,02,16,19,57,2.60
2011,02,16,19,58,2.60
2011,02,16,19,59,2.60
2011,02,16,20,00,2.60
2011,02,16,20,01,2.60
2011,02,16,20,02,2.60
2011,02,16,20,03,2.60
2011,02,16,20,04,2.60
2011,02,16,20,05,2.60
2011,02,16,20,06,2.60
2011,02,16,20,07,2.60
2011,02,16,20,08,2.50
2011,02,16,20,09,2.50
2011,02,16,20,10,2.50
2011,02,16,20,11,2.50
2011,02,16,20,12,2.50
2011,02,16,20,13,2.40
2011,02,16,20,14,2.40
2011,02,16,20,15,2.50
2011,02,16,20,16,2.50
2011,02,16,20,17,2.50
2011,02,16,20,18,2.50
2011,02,16,20,19,2.50
2011,02,16,20,20,2.50
2011,02,16,20,21,2.50
2011,02,16,20,22,2.50
2011,02,16,20,23,2.50
2011,02,16,20,24,2.50
2011,02,16,20,25,2.50
2011,02,16,20,26,2.50
2011,02,16,20,27,2.50
2011,02,16,20,28,2.50
2011,02,16,20,29,2.50
2011,02,16,20,30,2.50
2011,02,16,20,31,2.50
2011,02,16,20,32,2.50
2011,02,16,20,33,2.50
2011,02,16,20,34,2.50
2011,02,16,20,35,2.50
2011,02,16,20,36,2.50
2011,02,16,20,37,2.40
2011,02,16,20,38,2.40
2011,02,16,20,39,2.40
2011,02,16,20,40,2.40
2011,02,16,20,41,2.40
2011,02,16,20,42,2.40
2011,02,16,20,43,2.50
2011,02,16,20,44,2.50
2011,02,16,20,45,2.50
2011,02,16,20,46,2.60
2011,02,16,20,47,2.60
2011,02,16,20,48,2.60
2011,02,16,20,49,2.60
2011,02,16,20,50,2.60
2011,02,16,20,51,2.60
2011,02,16,20,52,2.70
2011,02,16,20,53,2.70
2011,02,16,20,54,2.70
2011,02,16,20,55,2.70
2011,02,16,20,56,2.70
2011,02,16,20,57,2.60
2011,02,16,20,58,2.60
2011,02,16,20,59,2.60
2011,02,16,21,00,2.60
2011,02,16,21,01,2.60
2011,02,16,21,02,2.60
2011,02,16,21,03,2.50
2011,02,16,21,04,2.50
2011,02,16,21,05,2.50
2011,02,16,21,06,2.40
2011,02,16,21,07,2.40
2011,02,16,21,08,2.30
2011,02,16,21,09,2.30
2011,02,16,21,10,2.30
2011,02,16,21,11,2.30
2011,02,16,21,12,2.30
2011,02,16,21,13,2.20
2011,02,16,21,14,2.20
2011,02,16,21,15,2.20
2011,02,16,21,16,2.20
2011,02,16,21,17,2.20
2011,02,16,21,18,2.10
2011,02,16,21,19,2.10
2011,02,16,21,20,2.10
2011,02,16,21,21,2.10
2011,02,16,21,22,2.00
2011,02,16,21,23,2.00
2011,02,16,21,24,2.00
2011,02,16,21,25,2.00
2011,02,16,21,26,2.00
2011,02,16,21,27,2.00
2011,02,16,21,28,2.00
2011,02,16,21,29,2.00
2011,02,16,21,30,2.00
2011,02,16,21,31,2.00
2011,02,16,21,32,2.00
